www.pogodaiklimat.ru

Погода и климат >> Архив погоды >> Россия >> Ростовская область >> Каменск-Шахтинский


ПОГОДА в Каменск-Шахтинском

  • Прогноз погоды в Каменск-Шахтинском
  • Монитор погоды в Каменск-Шахтинском

АРХИВ ПОГОДЫ в Каменск-Шахтинском

Время (UTC), дата Ветер
(напр.,м/с)
 
Видим.   Явления Облачность Т
(С)
Тd
(С)
f
(%)
Тe
(С)
Тes
(С)
Комфортность P
(гПа)
Po
(гПа)
Тmin
(С)
Tmax
(С)
R
(мм)
R24
(мм)
S
(см)
03 10.09 Ю 1 20 км ясно +7.5 +2.8 72 +7 +7 1026.5 1019.3 +7.1
06 10.09 В 2 20 км ясно +19.3 +4.4 37 +20 +25 1026.6 1019.7
09 10.09 В 5-11
{11}
20 км ясно +26.5 +1.6 20 +25 +31 комфорт 1025.4 1018.7
12 10.09 В 6-10
{12}
20 км ясно +26.9 +0.2 17 +25 +27 комфорт 1024.7 1017.9
15 10.09 В 5
{10}
20 км ясно +25.0 +1.3 21 +24 +24 комфорт 1024.7 1017.9 +27.2
18 10.09 ЮВ 1 20 км ясно +18.4 +1.7 33 +20 +20 1025.8 1018.9
21 10.09 ЮВ 1 20 км ясно +16.1 +2.0 39 +17 +17 1026.5 1019.5
00 11.09 штиль 0 20 км ясно +10.3 +3.0 61 +10 +10 1027.5 1020.4
03 11.09 штиль 0 20 км ясно +7.0 +2.9 75 +6 +6 1028.8 1021.6 +7.0
06 11.09 В 1 20 км ясно +19.9 +4.1 35 +21 +27 комфорт 1029.2 1022.3
09 11.09 В 6
{10}
20 км 1/1 1000 м
[Cu med, cong]
+27.6 +2.8 20 +26 +30 жарко 1028.3 1021.6
12 11.09 В 5
{11}
20 км 8/8 600 м
[Cb cap]
+28.0 +5.4 24 +27 +28 жарко 1027.3 1020.6
15 11.09 В 3
{10}
20 км 3/3 600 м
[Cb cap]
+25.9 +5.2 26 +25 +25 комфорт 1027.0 1020.2 +28.6
18 11.09 ЮВ 2 20 км 6/0
[Ac trans]
+19.6 +4.8 38 +21 +21 комфорт 1027.8 1020.9
21 11.09 ЮВ 2 20 км ясно +17.0 +5.2 46 +17 +17 1028.3 1021.3
00 12.09 штиль 0 20 км ясно +12.7 +7.4 70 +12 +12 1028.4 1021.4
03 12.09 штиль 0 20 км ясно +9.3 +5.8 79 +9 +9 1029.1 1021.9 +9.3
06 12.09 В 2 20 км ясно +20.2 +4.5 36 +21 +26 комфорт 1029.4 1022.5 +9.2
09 12.09 В 4 20 км ясно +25.9 +1.6 21 +24 +32 комфорт 1027.9 1021.1
12 12.09 СВ 3 20 км ясно +26.6 -1.7 15 +24 +30 комфорт 1026.3 1019.6
15 12.09 СВ 2 20 км ясно +24.6 +0.7 21 +23 +24 комфорт 1025.4 1018.7 +27.2
18 12.09 штиль 0 20 км ясно +17.2 +2.4 37 +17 +17 1026.1 1019.1
21 12.09 СЗ 1 20 км ясно +12.2 +4.8 61 +12 +12 1025.7 1018.7
00 13.09 СЗ 1 20 км ясно +10.1 +6.0 76 +10 +10 1025.7 1018.6
03 13.09 СЗ 1 20 км ясно +7.9 +5.2 83 +7 +7 1026.1 1018.9 +7.7
06 13.09 С 1 20 км ясно +17.1 +6.0 48 +18 +24 1026.4 1019.4
09 13.09 ЮВ 2 20 км 3/1 1000 м
[Cu hum Ac trans]
+27.8 +0.9 17 +26 +34 жарко 1024.7 1018.0
12 13.09 З 1 20 км 4/3 1000 м
[Cu hum Ac trans]
+28.3 +0.4 16 +26 +31 жарко 1022.8 1016.1
15 13.09 ЮВ 2 20 км 3/1 1000 м
[Cu hum Ac trans]
+25.5 +1.6 21 +24 +24 комфорт 1022.0 1015.3 +28.9
18 13.09 В 1 20 км ясно +16.1 +3.0 41 +17 +17 1022.9 1015.9
21 13.09 С 1 20 км 4/0
[Ac trans]
+13.3 +5.3 58 +14 +14 1022.7 1015.6
00 14.09 ЮВ 1 20 км 3/0
[Ac trans]
+10.4 +4.0 65 +10 +10 1022.4 1015.3
03 14.09 СЗ 1 20 км 3/0
[Ac trans]
+9.7 +6.5 80 +9 +9 1022.0 1014.9 +8.6
06 14.09 В 2 20 км ясно +20.2 +5.6 38 +22 +26 комфорт 1021.7 1014.8
09 14.09 Ю 3 20 км 5/5 600 м
[Cu hum]
+26.9 +0.8 18 +25 +29 комфорт 1019.8 1013.1
12 14.09 Ю 2 20 км 8/5 600 м
[Cu med, cong Ac trans]
+27.0 +0.1 17 +25 +27 комфорт 1018.3 1011.6
15 14.09 Ю 2 20 км 9/3 600 м
[Cu hum Ac trans Cc]
+24.7 +0.5 20 +23 +23 комфорт 1017.1 1010.3 +28.4
18 14.09 Ю 3 20 км 10/0
[Ac trans Ci fib]
+20.1 +1.8 30 +21 +21 комфорт 1017.0 1010.2
21 14.09 З 3 20 км 10/5 600 м
[Cb cap Ac trans Ci sp]
+21.2 +2.3 29 +21 +21 комфорт 1017.8 1011.0
00 15.09 СЗ 2 20 км 10/5 600 м
[Cb cap Ac und]
+16.9 +8.8 59 +17 +17 1018.9 1012.0
03 15.09 СЗ 2 20 км 8/4 600 м
[Cb cap Ac trans]
+14.7 +8.2 65 +14 +14 1019.9 1012.9 +14.7
06 15.09 С 3 20 км 3/0
[Ac trans]
+17.3 +7.8 54 +17 +20 1021.4 1014.5 +13.9
09 15.09 С 4
{10}
20 км ясно +20.6 +1.8 29 +21 +28 комфорт 1020.7 1013.9
12 15.09 СЗ 3 20 км 4/0
[Ci fib]
+21.7 -0.4 23 +21 +26 комфорт 1020.1 1013.2
15 15.09 СЗ 2 20 км 4/0
[Ci fib]
+20.4 -1.2 23 +21 +21 комфорт 1019.8 1013.0 +21.9
18 15.09 В 1 20 км 6/0
[Ci fib]
+11.6 +0.2 45 +12 +12 1020.7 1013.6
21 15.09 СЗ 1 20 км 4/0
[Ci fib]
+10.3 +6.0 75 +10 +10 1020.4 1013.3
00 16.09 СЗ 1 20 км ясно +7.8 +5.1 83 +7 +7 1019.3 1012.1
03 16.09 В 1 20 км 1/0
[Ci fib]
+7.0 +3.0 76 +6 +6 1018.8 1011.6 +6.6
06 16.09 ЮЗ 4 20 км ясно +20.3 +0.5 27 +21 +23 комфорт 1016.8 1009.9 +6.6
09 16.09 З 6-10
{12}
20 км ясно +22.5 -0.6 21 +22 +26 комфорт 1014.1 1007.4
12 16.09 ЮЗ 7-11
{12}
20 км ясно +24.8 -2.2 17 +23 +25 комфорт 1011.4 1004.7
15 16.09 З 4
{11}
20 км ясно +24.2 -1.4 18 +23 +23 комфорт 1010.0 1003.3 +25.4
18 16.09 ЮЗ 4 20 км ясно +19.0 +2.4 33 +19 +19 1010.3 1003.5
21 16.09 ЮЗ 2
{10}
20 км ясно +16.9 +3.7 41 +17 +17 1009.6 1002.8
00 17.09 ЮЗ 5
{10}
20 км ясно +16.6 +5.7 48 +16 +16 1008.5 1001.6

 

Местоположение метеостанции Каменск-Шахтинский (Ростовская область, Россия): широта 48.30 долгота 40.30 высота над уровнем моря 58 м.

В архиве по умолчанию представлена погода в Каменск-Шахтинском за последнюю неделю. Архивные данные за месяц целиком и за предыдущие месяцы, начиная с января 2011 года, Вы можете получить, выбрав интересующий диапазон дат из раскрывающегося списка и нажав кнопку "Ввод!".


*Определитесь, кто Вы:
робот инопланетянин человек

Внимание! Время в таблицах - всемирное. Для получения местного времени необходимо прибавить поправку, которая равна 3 ч.

Смотрите также архив погоды в соседних городах и на ближайших метеорологических станциях:

Погода в Белой Калитве (Ростовская область, Россия) (39 км)
Погода в Шахтах (Ростовская область, Россия) (67 км)
Погода в Миллерово (Ростовская область, Россия) (70 км)
Погода в Аэропорту Платов (Ростовская область, Россия) (94 км)
Погода в Семикаракорске (Ростовская область, Россия) (95 км)
Погода в Константиновске (Ростовская область, Россия) (100 км)
Погода в Беловодске (Луганская область, Украина) (115 км)
Погода в Морозовске (Ростовская область, Россия) (116 км)
Погода в Ростове-на-Дону (Ростовская область, Россия) (120 км)
Погода в Чертково (Ростовская область, Россия) (121 км)

Пояснения к столбцам:

Ветер - указаны скорость ветра в м/с - средняя за 10 мин, порывы в срок и между сроками (в фигурных скобках) и направление, откуда дует ветер: С - северный, СВ - северо-восточный, В - восточный, ЮВ - юго-восточный, Ю - южный, ЮЗ - юго-западный, З - западный, СЗ - северо-западный.
Видимость - горизонтальная дальность видимости в метрах или километрах. При видимости от 1 до 10 км при отсутствии осадков обычно наблюдается дымка, при ухудшении видимости до 1 км и менее - туман. В сухую погоду видимость может ухудшаться дымом, пылью или мглою.
Явления - указаны атмосферные явления, наблюдавшиеся в срок или в последний час перед сроком; фигурными скобками обозначены явления, наблюдавшиеся между сроками (за 1-3 часа до срока); квадратными скобками обозначены град или гололедные отложения с указанием их диаметра в мм.
Облачность - указаны через наклонную черту общая и нижняя облачность в баллах и высота нижней границы облаков в метрах; квадратными скобками обозначены формы облаков: Ci - перистые, Cs - перисто-слоистые, Cc - перисто-кучевые, Ac - высококучевые, As - высокослоистые, Sc - слоисто-кучевые, Ns - слоисто-дождевые, Cu - кучевые, Cb - кучево-дождевые. Подробнее классификацию облаков см. в Атласе облаков (PDF).
T - Температура воздуха - температура, измеренная на высоте 2 м над землей.
Td - Температура точки росы - температура, при понижении до которой содержащийся в воздухе водяной пар достигнет насыщения.
f - Относительная влажность воздуха - влажноcть воздуха, измеренная на высоте 2 м над землей.
Te - Эффективная температура - температура, которую ощущает одетый по сезону человек в тени. Характеристика душности погоды. При расчете учитывается влияние влажности воздуха и скорости ветра на теплоощущения человека.
Tes - Эффективная температура на солнце - температура, которую ощущает человек, с поправкой на солнечный нагрев. Характеристика знойности погоды. Зависит от высоты солнца над горизонтом, облачности и скорости ветра. Ночью, в пасмурную погоду, а также при ветре 12 м/с и более поправка равна нулю.
P - Атмосферное давление - приведенное к уровню моря атмосферное давление.
Po - Атмосферное давление - измеренное на уровне метеостанции атмосферное давление.
Tmin - Минимальная температура - минимум температуры воздуха на высоте 2 м над землей.
Tmax - Максимальная температура - максимум температуры воздуха на высоте 2 м над землей.
R - Количество осадков - Количество выпавших осадков за период времени, мм. При наведении курсора мыши на число - период времени, за который выпало указанное количество осадков.
R24 - Количество осадков - Количество выпавших осадков за 24 часа, мм.
S - Снежный покров - Высота снежного покрова, см. При наведении курсора мыши на число - состояние снежного покрова и степень покрытия местности в баллах.